Temp
26 26 25 24 27 18 18 19 19 30 29 29 29 29 27 23 21 19 21 22 19 20 20 19 19 19 19 18 18 18 18 18 18 18 18 18 18 18 18 18 18 18 18 18 18 18 18 18 19
26 24 26 28 28 27 18 21 21 29 29 28 29 29 25 24 23 22 22 21 19 19 18 18 18 18 18 18 18 18 18 18 18 18 18 18 18 17 17 17 17 18 18 18 18 18 18 18 18
26 26 28 30 30 21 20 20 24 29 28 29 29 27 26 22 23 22 22 21 20 18 18 18 18 18 18 18 18 18 18 17 18 18 18 17 17 17 16 16 17 17 17 18 18 18 18 18 18
25 28 29 29 30 28 21 17 24 30 29 30 28 26 23 23 22 22 21 21 19 18 18 18 18 18 18 18 17 17 17 17 17 17 17 17 17 17 17 17 17 17 17 17 17 17 17 17 18
26 28 30 30 32 29 30 23 28 30 30 30 28 25 24 22 22 22 21 21 20 17 19 18 18 18 18 18 17 17 17 17 17 17 17 17 17 17 17 17 17 17 17 17 17 17 17 17 17
28 29 29 30 31 31 31 32 31 31 30 29 27 25 24 22 22 22 22 22 20 18 16 18 18 18 18 18 17 17 17 17 17 17 17 17 17 17 17 17 17 17 18 17 17 17 17 17 17
28 30 30 32 31 31 33 33 32 31 31 30 28 25 23 23 23 23 23 23 21 19 16 17 18 18 18 17 17 17 17 17 17 17 17 17 17 17 18 17 18 18 18 18 18 18 18 17 17
29 30 30 32 33 29 31 33 32 31 31 30 28 26 24 24 23 24 24 23 22 20 18 16 18 18 18 17 16 16 17 17 17 17 17 16 15 15 16 16 17 17 17 17 17 16 17 17 17
29 29 29 32 33 27 30 33 32 31 30 30 29 26 24 24 24 24 24 23 23 21 20 18 16 18 16 17 17 17 16 17 17 16 16 15 15 17 15 15 15 15 15 14 14 14 14 14 15
30 29 30 33 34 33 33 33 32 31 31 30 28 26 25 24 24 24 24 24 24 23 21 19 18 18 17 16 16 16 15 15 16 17 16 16 14 16 15 14 14 14 14 13 13 13 13 13 13
30 29 32 33 34 34 32 33 30 31 31 26 27 25 25 25 25 25 24 24 24 22 21 18 18 19 17 17 17 17 16 15 15 16 17 16 14 15 15 14 13 13 13 13 13 13 13 12 13
30 31 31 32 33 33 34 33 33 32 26 23 21 25 25 25 25 25 24 24 23 22 20 19 20 18 17 17 17 16 15 15 14 16 16 16 15 15 13 13 13 12 12 12 12 12 12 13 13
31 32 31 32 32 32 32 33 32 32 24 23 20 25 26 26 25 25 24 23 23 22 20 19 19 18 17 17 17 16 15 14 14 16 17 16 16 15 13 12 12 12 11 11 11 12 12 12 13
31 31 32 32 32 32 32 32 32 32 27 20 23 25 26 26 26 25 24 23 22 21 19 19 17 16 16 16 16 16 15 14 14 16 16 16 16 15 12 12 11 11 11 11 11 12 12 12 12
31 31 32 32 32 32 32 31 31 32 32 30 28 27 26 26 26 25 24 23 22 20 18 17 16 16 16 15 15 14 14 14 14 14 16 16 15 13 12 11 11 11 11 11 11 12 12 12 12
30 30 29 32 32 32 32 30 32 32 32 30 29 28 27 27 26 25 24 22 21 20 18 17 16 16 15 16 15 14 14 13 15 14 15 14 13 12 11 10 11 11 11 11 11 11 11 12 12
30 28 29 31 33 32 31 30 32 32 32 31 21 22 28 26 26 25 23 22 20 19 18 16 17 17 17 15 14 14 13 13 15 14 13 12 10 11 10 10 10 10 10 10 10 10 11 11 11
30 29 31 31 33 32 31 31 32 32 33 31 30 29 28 27 26 24 23 21 20 19 18 17 17 16 16 15 14 13 13 13 15 13 12 11 10 11 10 10 9 10 10 9 10 10 10 11 10
30 30 30 32 33 32 31 31 32 32 32 31 30 29 29 28 26 23 22 20 19 18 17 17 16 17 15 14 13 13 13 14 13 12 12 10 10 9 10 9 10 9 9 10 9 10 10 11 11
29 29 29 31 32 31 30 30 31 32 32 31 30 30 29 27 24 22 20 18 18 17 16 16 16 16 14 14 14 14 14 13 12 12 12 10 9 9 9 9 9 9 9 9 9 9 10 10 10
29 28 29 30 31 31 30 29 30 32 32 30 30 30 29 27 24 21 19 17 17 15 14 15 16 16 14 13 15 14 14 13 13 12 10 10 9 8 8 9 8 8 8 8 8 8 9 9 10
28 30 30 29 29 28 31 27 30 31 31 31 30 30 30 29 25 22 18 17 17 15 14 14 14 14 14 14 15 15 14 13 13 12 11 10 9 8 8 8 8 8 8 8 7 8 8 9 9
28 30 29 29 29 28 29 28 30 31 30 31 31 30 30 30 27 23 18 16 17 15 14 13 13 14 13 14 14 14 13 14 13 12 11 9 10 8 8 8 7 7 7 7 7 7 7 7 8
29 29 28 28 28 26 28 28 29 31 31 31 32 32 31 30 29 23 19 17 16 15 14 13 13 13 13 14 13 14 13 13 12 11 11 10 9 9 8 8 8 8 7 7 7 7 7 7 7
29 27 25 26 26 26 29 29 29 32 33 32 32 31 32 27 26 20 19 17 16 16 14 13 13 12 13 15 14 13 13 12 12 11 11 11 10 9 8 8 8 8 7 7 7 7 7 7 7
28 28 26 25 26 26 29 28 29 32 33 32 32 32 28 27 25 21 19 17 17 15 14 12 12 12 13 14 14 14 14 13 12 11 11 11 11 10 9 8 8 7 7 8 7 7 7 6 6
28 27 28 27 28 27 29 27 29 30 31 30 32 31 28 20 22 23 18 18 16 15 14 13 12 12 12 13 14 14 14 12 11 11 11 10 10 10 9 8 8 7 7 7 7 7 7 7 7
28 29 26 27 23 24 27 28 26 26 25 26 28 29 22 21 21 18 17 17 16 15 14 13 12 12 12 12 13 13 13 12 11 11 11 9 9 9 8 8 8 7 7 7 7 7 7 7 7
26 20 17 25 24 23 23 26 25 22 27 25 24 21 20 21 22 21 15 16 16 15 14 14 13 12 12 12 12 12 12 12 11 11 10 9 8 8 8 8 8 8 7 7 7 7 7 7 7
27 26 26 24 23 20 15 16 23 24 22 23 22 23 19 19 18 18 19 16 16 15 15 14 13 13 12 11 11 11 12 11 11 9 9 8 8 8 8 8 8 8 8 7 7 7 7 7 7
Height
1504 1504 1504 1507 1509 1528 1546 1522 1515 1480 1479 1482 1484 1485 1493 1503 1510 1529 1523 1525 1525 1526 1528 1531 1534 1536 1538 1539 1541 1542 1543 1544 1545 1546 1546 1546 1546 1546 1546 1546 1545 1545 1544 1543 1543 1543 1541 1541 1539
1504 1505 1505 1502 1502 1504 1538 1512 1506 1487 1483 1486 1488 1486 1496 1508 1511 1518 1524 1527 1526 1528 1530 1532 1535 1536 1538 1540 1542 1543 1544 1545 1546 1546 1547 1547 1547 1547 1547 1546 1546 1545 1544 1543 1542 1541 1541 1541 1540
1504 1504 1505 1493 1487 1522 1528 1517 1503 1490 1487 1484 1489 1493 1500 1514 1517 1521 1525 1527 1530 1530 1531 1533 1535 1537 1540 1541 1543 1545 1546 1547 1547 1548 1548 1548 1548 1548 1547 1547 1546 1545 1544 1543 1542 1541 1541 1540 1538
1505 1503 1501 1494 1482 1490 1513 1515 1501 1489 1491 1484 1488 1500 1509 1513 1518 1523 1526 1529 1531 1532 1531 1534 1536 1538 1541 1542 1544 1546 1547 1548 1548 1549 1549 1549 1549 1549 1548 1547 1546 1545 1544 1543 1542 1541 1540 1540 1538
1506 1501 1493 1487 1470 1478 1476 1479 1488 1488 1486 1485 1488 1503 1509 1515 1518 1523 1527 1530 1531 1531 1532 1534 1537 1539 1541 1543 1546 1547 1549 1550 1550 1551 1551 1551 1550 1549 1548 1547 1546 1545 1544 1543 1542 1540 1540 1538 1537
1502 1495 1495 1485 1478 1473 1469 1471 1479 1480 1482 1488 1493 1502 1512 1516 1520 1523 1526 1529 1530 1532 1533 1535 1538 1540 1542 1544 1547 1549 1551 1551 1552 1551 1551 1551 1550 1548 1547 1546 1545 1544 1542 1542 1540 1539 1538 1536 1536
1500 1491 1486 1470 1474 1472 1467 1469 1472 1480 1479 1481 1489 1501 1512 1516 1520 1522 1525 1529 1530 1534 1535 1536 1538 1541 1544 1546 1548 1551 1551 1552 1552 1551 1551 1551 1550 1548 1547 1547 1545 1543 1541 1540 1538 1537 1535 1534 1533
1498 1491 1484 1470 1466 1480 1470 1468 1469 1475 1478 1482 1486 1496 1508 1513 1519 1522 1525 1529 1532 1535 1537 1538 1539 1542 1545 1547 1550 1551 1552 1552 1552 1552 1551 1550 1549 1548 1546 1546 1544 1542 1540 1538 1536 1534 1532 1531 1530
1496 1494 1491 1473 1462 1475 1468 1467 1471 1474 1479 1483 1486 1492 1504 1511 1517 1521 1524 1528 1531 1534 1536 1539 1542 1545 1547 1549 1550 1551 1552 1552 1551 1551 1551 1551 1550 1549 1547 1545 1542 1540 1538 1536 1534 1533 1531 1529 1528
1492 1489 1482 1464 1460 1462 1461 1464 1468 1476 1477 1484 1491 1498 1505 1511 1516 1519 1523 1527 1530 1533 1537 1539 1541 1546 1548 1550 1551 1551 1551 1551 1551 1550 1550 1550 1550 1547 1546 1545 1542 1539 1538 1536 1534 1533 1531 1528 1527
1487 1486 1474 1464 1462 1460 1463 1466 1471 1477 1476 1492 1495 1503 1504 1511 1515 1519 1522 1526 1530 1531 1535 1539 1541 1547 1549 1551 1552 1554 1552 1552 1548 1550 1549 1548 1548 1547 1545 1542 1541 1539 1538 1536 1534 1533 1530 1528 1526
1484 1479 1475 1469 1464 1462 1461 1464 1467 1470 1479 1485 1508 1507 1504 1509 1515 1518 1521 1525 1530 1534 1534 1538 1541 1545 1548 1551 1553 1552 1550 1550 1548 1546 1548 1547 1545 1545 1543 1541 1540 1538 1537 1535 1534 1532 1530 1529 1528
1478 1475 1474 1470 1467 1466 1467 1466 1467 1468 1476 1485 1497 1503 1502 1508 1514 1517 1522 1525 1530 1533 1534 1538 1540 1544 1546 1548 1549 1549 1549 1548 1546 1545 1546 1545 1544 1543 1543 1542 1540 1538 1537 1535 1534 1532 1531 1530 1529
1472 1473 1471 1469 1466 1465 1469 1469 1468 1471 1471 1484 1482 1489 1496 1505 1512 1516 1520 1524 1529 1532 1535 1537 1539 1542 1543 1545 1546 1547 1546 1546 1545 1543 1543 1544 1543 1543 1542 1541 1539 1538 1537 1536 1535 1532 1532 1531 1528
1473 1472 1469 1469 1467 1466 1467 1470 1469 1470 1470 1473 1477 1487 1495 1501 1506 1512 1519 1523 1528 1530 1535 1537 1537 1538 1541 1545 1546 1546 1546 1545 1542 1541 1541 1542 1543 1542 1543 1541 1539 1537 1537 1536 1534 1533 1532 1531 1530
1474 1472 1479 1463 1463 1465 1468 1476 1464 1465 1466 1473 1476 1476 1493 1495 1498 1507 1515 1521 1526 1528 1530 1532 1534 1537 1539 1540 1542 1545 1545 1544 1539 1541 1541 1542 1542 1542 1542 1540 1538 1537 1537 1535 1534 1533 1532 1532 1531
1473 1483 1473 1464 1453 1457 1464 1472 1463 1459 1459 1467 1473 1491 1487 1494 1491 1503 1512 1517 1518 1523 1527 1531 1532 1534 1537 1539 1540 1541 1544 1542 1538 1540 1541 1541 1542 1541 1542 1539 1538 1537 1536 1534 1534 1533 1532 1531 1530
1470 1470 1461 1462 1447 1451 1461 1464 1462 1457 1449 1461 1473 1477 1478 1478 1490 1499 1505 1509 1515 1519 1524 1527 1529 1531 1534 1536 1537 1539 1542 1540 1536 1539 1540 1541 1542 1541 1541 1539 1539 1537 1535 1533 1533 1533 1534 1532 1530
1462 1462 1460 1449 1443 1451 1456 1460 1456 1457 1456 1459 1465 1467 1466 1477 1488 1494 1500 1507 1511 1516 1520 1524 1526 1528 1531 1533 1535 1539 1541 1538 1537 1538 1540 1541 1541 1541 1541 1540 1539 1538 1535 1534 1533 1533 1532 1532 1530
1468 1471 1468 1455 1448 1457 1461 1461 1455 1452 1453 1459 1463 1465 1463 1465 1482 1493 1498 1503 1507 1512 1517 1520 1523 1526 1529 1532 1536 1538 1538 1538 1537 1538 1539 1540 1540 1540 1539 1540 1539 1539 1537 1535 1534 1533 1533 1533 1531
1473 1474 1468 1466 1453 1453 1463 1464 1454 1449 1450 1456 1460 1464 1466 1469 1478 1482 1489 1496 1504 1508 1513 1516 1518 1522 1525 1530 1531 1533 1535 1536 1537 1538 1538 1539 1540 1540 1539 1539 1539 1539 1538 1537 1536 1534 1534 1534 1534
1477 1460 1461 1464 1466 1476 1454 1481 1452 1446 1446 1448 1453 1458 1462 1463 1467 1475 1480 1487 1495 1505 1508 1511 1514 1519 1520 1524 1528 1531 1533 1535 1539 1540 1538 1539 1539 1539 1540 1540 1540 1540 1539 1538 1537 1536 1534 1534 1534
1471 1459 1463 1465 1468 1469 1464 1471 1451 1437 1446 1440 1442 1447 1452 1456 1462 1468 1474 1485 1490 1497 1502 1506 1510 1515 1517 1520 1524 1528 1533 1535 1538 1537 1538 1537 1538 1539 1540 1541 1541 1541 1541 1540 1539 1538 1537 1535 1535
1465 1467 1468 1468 1469 1484 1464 1465 1457 1441 1435 1433 1438 1441 1443 1447 1453 1455 1469 1478 1486 1493 1499 1502 1506 1510 1513 1517 1521 1525 1529 1532 1535 1536 1537 1537 1538 1539 1541 1542 1542 1541 1542 1542 1539 1538 1538 1536 1537
1467 1476 1490 1487 1481 1477 1454 1455 1448 1429 1425 1429 1432 1436 1435 1439 1450 1457 1469 1477 1482 1489 1495 1499 1503 1508 1512 1514 1518 1522 1526 1530 1532 1534 1537 1539 1540 1539 1540 1540 1541 1541 1541 1542 1542 1541 1539 1539 1538
1465 1469 1482 1496 1484 1480 1448 1460 1444 1422 1424 1427 1430 1433 1436 1439 1442 1461 1477 1476 1478 1484 1494 1497 1502 1506 1508 1511 1515 1518 1522 1526 1529 1533 1536 1539 1541 1538 1538 1539 1540 1541 1542 1543 1542 1541 1541 1540 1539
1466 1470 1457 1469 1458 1465 1450 1450 1437 1429 1432 1435 1432 1435 1435 1443 1445 1436 1449 1456 1468 1480 1489 1494 1499 1504 1507 1508 1511 1515 1520 1524 1527 1531 1533 1536 1538 1537 1537 1539 1540 1541 1541 1541 1541 1540 1539 1540 1540
1465 1460 1476 1466 1496 1493 1460 1451 1462 1448 1450 1447 1439 1440 1449 1449 1443 1458 1436 1469 1470 1477 1487 1493 1499 1502 1504 1506 1509 1513 1518 1522 1525 1528 1532 1533 1535 1536 1536 1538 1539 1539 1539 1539 1540 1540 1539 1539 1539
1470 1490 1508 1481 1483 1499 1497 1470 1454 1462 1458 1463 1463 1462 1459 1455 1451 1441 1460 1474 1478 1481 1484 1489 1499 1504 1505 1506 1508 1511 1515 1519 1522 1526 1529 1531 1532 1534 1535 1537 1538 1539 1539 1539 1540 1540 1540 1539 1538
1464 1471 1476 1488 1491 1497 1524 1505 1472 1458 1465 1470 1469 1465 1467 1461 1462 1464 1458 1469 1474 1481 1485 1487 1492 1498 1508 1507 1507 1510 1513 1517 1520 1523 1526 1528 1530 1532 1534 1536 1537 1538 1538 1538 1539 1540 1540 1538 1537
Wind_Speed
15 13 9 8 7 7 9 11 15 6 11 11 11 14 24 16 11 6 15 16 18 14 16 16 13 11 9 7 6 5 6 6 5 5 5 5 6 6 7 7 7 8 8 8 9 9 10 10 11
13 11 16 19 12 11 3 10 28 9 15 10 6 13 24 18 18 20 19 16 14 14 14 15 13 11 8 7 6 5 5 5 5 6 6 7 7 7 7 7 7 7 8 9 9 9 8 9 10
14 8 16 8 15 4 3 17 16 8 7 5 8 17 12 12 13 16 20 16 20 20 11 14 12 10 8 7 7 6 5 5 6 6 6 6 6 7 8 8 10 10 10 10 11 11 11 11 10
9 15 14 11 20 8 15 21 28 9 5 3 21 15 16 14 15 20 19 18 17 14 11 14 12 11 9 9 8 7 6 6 6 6 6 6 7 8 9 10 10 11 12 12 12 12 12 12 11
14 15 12 18 24 6 8 45 28 9 6 9 22 20 21 19 23 22 20 17 22 15 12 15 12 11 10 8 8 8 7 7 6 6 7 8 9 9 10 10 11 12 12 13 13 13 13 13 14
18 20 14 16 12 6 14 11 12 9 17 13 20 22 17 20 21 20 18 19 16 15 15 15 13 11 10 9 9 9 7 6 6 8 9 10 11 11 11 11 11 12 13 13 14 14 15 16 16
16 13 19 22 4 6 9 3 9 12 2 18 22 15 17 19 19 19 18 20 19 17 16 13 13 12 11 10 9 7 6 6 8 10 11 10 10 13 12 12 13 14 15 16 17 17 17 17 16
20 14 22 19 12 3 9 6 12 8 17 11 23 10 21 23 21 20 19 19 18 16 16 16 11 12 10 10 8 5 4 6 7 9 10 10 13 14 16 17 16 17 16 16 16 17 17 16 14
21 13 14 22 20 15 24 9 10 6 11 8 10 25 27 25 23 22 20 19 18 19 19 17 18 10 4 9 6 5 3 4 8 9 7 7 5 8 6 16 20 23 21 20 20 20 16 15 10
19 13 20 22 11 8 7 4 15 8 10 14 22 27 27 26 24 23 22 20 19 20 24 25 16 8 10 7 7 6 5 9 8 6 7 6 9 12 11 10 15 19 18 15 18 17 15 13 13
23 17 21 25 21 14 19 5 13 16 15 14 18 25 27 25 24 22 21 20 20 23 25 22 17 10 14 6 6 6 5 2 10 8 7 8 7 13 13 12 10 14 11 13 13 13 16 17 17
20 23 25 27 27 8 11 3 6 4 9 32 6 23 26 25 23 22 21 22 20 19 17 14 15 17 15 7 8 3 2 1 1 10 8 9 10 14 14 14 12 12 12 13 12 13 15 17 16
18 18 23 24 24 6 14 15 5 9 21 20 37 26 26 24 22 21 21 21 21 17 13 14 13 18 18 15 12 8 3 3 3 6 9 11 13 13 12 14 11 11 12 12 13 14 15 13 14
18 20 23 25 18 16 11 16 4 12 22 46 35 31 25 23 22 22 21 20 21 20 14 14 14 16 12 12 9 6 5 2 3 8 11 13 13 11 10 10 8 8 12 14 13 15 11 13 11
20 17 11 19 19 16 10 14 14 16 17 16 30 24 26 24 22 24 21 21 19 19 18 14 18 18 12 7 6 4 7 3 2 9 13 14 12 9 9 8 8 8 10 10 10 11 12 11 10
13 15 14 18 18 19 15 15 16 19 19 22 24 25 27 27 24 24 23 21 20 22 24 22 18 13 12 9 8 6 8 5 4 5 11 11 10 7 6 4 9 12 10 6 9 10 9 9 11
12 12 19 18 20 17 12 17 16 21 25 20 32 42 24 26 27 25 22 24 27 27 26 21 16 12 11 8 11 9 8 3 4 4 7 8 8 7 6 11 9 8 7 6 7 9 6 8 8
10 18 13 15 15 14 13 15 14 26 26 19 10 19 24 25 27 28 27 30 28 29 25 20 16 13 10 11 7 5 6 2 2 2 5 3 5 6 9 10 10 10 5 7 6 5 11 9 9
10 15 14 8 8 3 8 11 16 18 10 8 12 17 15 20 26 32 29 28 27 27 25 20 18 15 11 9 10 7 5 1 3 4 3 3 3 5 5 5 6 9 14 10 7 4 6 9 10
10 14 14 15 7 2 10 14 14 14 15 15 17 19 24 28 27 27 27 27 30 30 25 21 18 16 12 13 12 10 8 8 6 5 3 3 4 3 4 7 7 11 11 13 10 12 8 13 14
12 13 14 14 14 10 10 16 16 13 18 20 19 20 24 31 31 30 31 25 22 23 24 22 20 18 16 19 19 18 11 6 3 4 3 3 4 3 5 4 8 8 3 12 13 10 13 13 9
11 14 15 12 13 10 13 11 15 13 14 17 24 24 24 26 37 37 35 34 28 26 25 22 20 20 22 19 15 13 7 6 8 10 9 2 4 4 5 5 6 10 9 7 9 8 12 6 14
11 8 8 10 11 14 17 11 15 9 18 20 18 27 30 30 34 40 40 37 35 30 26 25 23 22 23 19 14 14 13 11 10 11 5 6 1 6 3 4 6 6 5 9 10 12 7 9 11
12 9 9 12 12 12 17 15 16 15 11 9 11 16 28 32 29 44 39 39 35 29 29 27 27 24 21 23 18 15 14 11 13 10 2 3 3 3 5 2 4 6 4 4 8 8 13 11 7
11 9 9 11 11 14 10 16 13 14 9 12 12 26 24 23 9 18 35 38 36 33 28 28 27 26 22 24 20 20 18 16 15 9 9 7 3 5 4 2 4 2 3 6 5 8 7 9 7
10 13 9 15 13 8 15 8 2 7 4 8 12 9 14 13 31 33 36 38 36 33 30 26 27 26 24 22 21 18 16 15 10 12 10 10 5 10 8 3 1 1 2 2 6 1 3 4 7
14 12 13 11 17 13 13 3 11 10 5 14 10 14 3 6 16 43 50 44 38 34 32 29 26 26 25 24 22 19 16 12 9 12 13 11 11 8 8 4 3 2 1 3 4 4 2 4 6
14 14 10 7 8 13 14 7 11 14 13 19 24 21 26 26 32 5 13 24 32 33 31 28 27 27 26 24 23 20 19 16 16 14 12 10 12 8 9 6 3 3 1 3 3 4 4 4 5
5 4 11 4 5 7 11 7 16 20 14 12 24 30 19 19 9 17 14 21 26 33 31 30 28 26 26 24 22 21 20 17 15 11 15 14 13 11 7 6 4 3 2 4 5 7 1 2 4
16 7 11 7 5 3 5 10 6 11 11 22 25 30 13 14 4 16 24 30 31 34 30 30 29 26 26 23 23 21 19 18 14 11 11 11 9 9 8 7 5 4 3 5 4 2 2 3 6
Wind_Direction
289 301 320 268 252 94 154 284 331 135 81 57 53 46 76 106 137 171 145 119 117 116 137 137 139 134 132 128 111 96 86 83 80 71 60 50 44 41 39 33 26 16 6 357 348 341 336 331 328
289 278 270 269 266 261 224 241 271 58 87 102 80 101 77 69 99 128 132 129 118 119 132 138 140 141 133 121 115 104 91 83 71 59 51 50 48 42 34 23 12 6 4 2 357 348 335 326 322
277 268 278 244 250 113 91 296 256 86 109 126 108 45 68 98 106 126 134 126 118 133 150 140 140 134 137 133 116 106 97 81 70 64 57 49 35 20 13 5 357 351 346 343 344 340 337 335 334
278 263 241 263 268 123 133 261 247 122 84 19 109 83 97 127 127 133 132 130 132 131 157 144 142 142 138 120 116 106 98 90 79 62 47 21 10 358 350 341 337 335 333 332 331 329 327 324 323
255 268 266 258 270 110 112 193 205 89 154 87 96 98 101 111 129 135 135 134 134 135 143 139 142 133 125 125 119 104 95 86 71 48 27 4 351 340 335 334 335 336 334 332 330 327 323 320 319
255 243 263 270 55 173 175 119 123 130 105 113 102 112 111 125 136 138 136 138 134 125 142 139 137 134 132 122 114 107 93 74 49 25 7 358 355 357 359 356 355 351 345 337 331 326 321 317 314
252 265 257 273 145 276 281 140 148 120 142 134 137 124 134 147 146 143 142 138 132 132 137 133 140 134 129 122 115 105 86 51 27 13 7 12 18 13 8 9 359 351 343 336 331 325 320 317 314
242 264 278 283 264 120 317 201 124 169 75 104 140 131 153 151 150 146 143 141 133 134 137 139 133 113 132 124 110 90 53 25 19 18 30 34 23 6 2 346 348 348 343 338 335 332 331 327 329
243 254 268 267 276 146 212 198 146 152 116 159 88 139 147 150 150 149 148 145 149 150 154 152 139 88 103 121 87 84 54 23 15 23 55 19 1 9 25 338 351 346 2 3 353 357 14 354 353
237 251 252 269 314 158 106 254 151 158 162 129 110 123 143 151 155 154 154 153 152 152 150 151 149 106 138 138 55 53 18 357 3 21 29 22 1 356 1 347 357 348 353 1 354 1 354 324 329
241 243 264 269 309 284 119 240 149 220 185 50 130 143 151 156 162 160 158 158 153 140 152 144 144 153 160 154 96 142 194 70 334 5 18 16 7 348 358 348 11 355 344 338 355 354 325 358 5
235 246 253 277 292 306 290 320 202 265 146 139 206 161 156 162 165 163 157 157 152 147 143 148 171 174 165 154 156 178 248 50 259 341 4 6 354 358 3 1 10 359 351 353 14 336 359 17 6
237 249 254 262 280 292 298 286 246 241 154 141 180 175 161 167 169 165 165 158 165 155 161 175 204 183 191 189 191 196 153 221 299 323 353 1 357 4 17 0 8 354 347 7 14 5 17 10 12
245 240 253 262 268 265 248 268 238 258 147 160 162 172 160 173 175 164 169 167 168 170 184 195 183 194 206 198 207 215 226 80 334 346 352 0 358 13 46 342 360 355 1 19 10 27 10 21 10
268 273 261 244 263 266 235 245 249 239 232 174 156 158 168 179 178 169 175 171 176 177 175 186 188 186 201 197 158 178 111 149 36 359 346 351 6 28 50 348 331 29 21 15 5 24 30 33 12
251 248 259 253 232 244 235 252 233 242 235 191 194 158 176 177 176 172 174 175 181 172 181 191 200 209 200 187 164 189 158 183 47 14 330 350 10 52 352 349 9 45 23 22 19 15 50 25 6
230 247 233 249 235 215 199 248 262 262 220 221 146 219 184 180 167 171 171 175 186 191 199 198 205 203 210 181 180 206 155 151 53 346 322 7 5 48 33 345 43 45 49 355 40 31 21 24 346
231 213 226 261 244 179 224 235 242 264 260 202 208 185 180 165 167 165 178 188 193 199 206 201 200 206 191 191 169 163 158 122 4 313 338 67 360 38 84 341 51 6 29 11 82 39 20 352 336
334 301 312 256 217 297 209 252 251 247 172 198 217 204 179 172 166 163 187 195 203 208 214 196 204 208 198 170 148 152 155 43 353 324 18 1 56 16 118 12 90 36 6 15 40 50 58 357 10
310 280 281 298 311 52 288 266 244 238 205 210 235 236 214 161 162 175 193 199 208 221 207 200 207 202 180 148 166 173 159 145 199 286 355 60 28 101 12 95 62 79 12 15 46 47 51 40 6
268 268 277 265 286 182 251 267 263 232 218 185 209 228 212 179 181 190 196 195 206 207 194 198 204 189 169 182 190 192 194 196 205 35 90 16 80 41 47 78 96 55 46 37 24 61 41 36 19
259 253 234 274 288 268 221 255 248 226 227 188 197 207 230 205 189 188 184 192 196 193 203 199 196 185 174 200 189 188 132 110 163 165 226 307 127 76 66 68 71 62 14 55 34 81 58 61 40
253 355 334 288 270 265 268 266 267 236 216 219 211 203 212 223 196 179 182 186 191 190 197 196 197 186 190 181 179 168 153 192 186 217 200 204 107 117 91 55 43 55 12 21 35 14 39 74 63
299 310 259 265 260 258 248 254 268 261 237 199 226 229 219 210 212 183 178 181 180 183 186 194 196 188 190 179 183 165 178 182 185 218 122 63 23 78 130 84 347 46 37 35 7 38 16 62 83
219 249 263 253 229 239 324 242 235 253 253 205 194 228 242 143 107 163 170 179 177 181 186 189 197 185 191 183 181 176 190 178 201 201 145 180 204 221 255 124 165 70 50 3 27 37 9 24 65
328 244 259 280 301 337 284 265 298 281 265 261 262 276 156 128 177 223 202 182 175 180 182 191 188 185 188 183 183 188 187 189 190 146 203 180 199 211 247 251 117 330 69 329 64 355 30 39 25
293 263 341 309 276 274 269 173 274 239 332 347 284 291 318 128 205 186 191 175 178 185 186 189 186 187 186 186 185 187 178 175 182 180 193 178 189 243 249 172 208 270 193 214 197 321 42 52 46
255 293 293 284 339 302 294 320 50 5 40 10 341 10 62 62 75 88 181 161 176 187 185 191 189 190 187 187 188 186 172 173 195 217 176 197 192 178 175 183 219 245 241 204 190 274 42 45 32
323 9 334 308 298 307 301 338 35 24 13 30 27 41 54 52 59 148 185 213 194 187 188 190 189 190 184 187 183 185 179 183 203 197 170 201 211 193 194 190 226 237 277 209 227 191 325 344 326
300 265 270 290 276 113 144 280 248 90 306 41 18 6 42 59 96 165 170 200 189 192 192 188 184 187 190 186 184 187 185 188 191 186 188 195 195 186 186 205 209 226 228 224 197 274 255 290 303